| time (UTC) | temp F | wind direction | speed knots | gust knots | rain 1hr in | rain 24hr in | rain mn in | humidity % | barometer mb |
| 20260509162023 | 60 | 187 | 3.5 | 10.4 | 0.00 | 0.00 | 0.00 | 68 | 1005.4 |
| 20260509161539 | 60 | 213 | 6.1 | 10.4 | 0.00 | 0.00 | 0.00 | 65 | 1005.5 |
| 20260509161022 | 60 | 194 | 4.3 | 8.7 | 0.00 | 0.00 | 0.00 | 65 | 1005.5 |
| 20260509160523 | 60 | 196 | 4.3 | 7.8 | 0.00 | 0.00 | 0.00 | 65 | 1005.6 |
| 20260509160038 | 60 | 182 | 0.9 | 7.0 | 0.00 | 0.00 | 0.00 | 69 | 1005.7 |
| 20260509155522 | 59 | 191 | 1.7 | 6.1 | 0.00 | 0.00 | 0.00 | 69 | 1005.7 |
| 20260509155022 | 59 | 189 | 1.7 | 7.8 | 0.00 | 0.00 | 0.00 | 70 | 1005.8 |
| 20260509154542 | 58 | 271 | 1.7 | 8.7 | 0.00 | 0.00 | 0.00 | 69 | 1005.9 |
| 20260509154021 | 59 | 211 | 3.5 | 9.6 | 0.00 | 0.00 | 0.00 | 70 | 1005.9 |
| 20260509153522 | 58 | 223 | 4.3 | 9.6 | 0.00 | 0.00 | 0.00 | 70 | 1005.9 |
| 20260509153050 | 59 | 188 | 2.6 | 7.0 | 0.00 | 0.00 | 0.00 | 71 | 1006.0 |
| 20260509152523 | 59 | 197 | 3.5 | 6.1 | 0.00 | 0.00 | 0.00 | 72 | 1006.0 |
| 20260509152020 | 58 | 285 | 1.7 | 5.2 | 0.00 | 0.00 | 0.00 | 72 | 1006.0 |
| 20260509151540 | 58 | 293 | 1.7 | 7.8 | 0.00 | 0.00 | 0.00 | 73 | 1006.1 |
| 20260509151020 | 57 | 265 | 3.5 | 7.8 | 0.00 | 0.00 | 0.00 | 72 | 1006.1 |
| 20260509150523 | 57 | 202 | 1.7 | 6.1 | 0.00 | 0.00 | 0.00 | 72 | 1006.0 |
| 20260509150038 | 57 | 207 | 3.5 | 7.8 | 0.00 | 0.00 | 0.00 | 72 | 1006.0 |
| 20260509145521 | 57 | 197 | 2.6 | 7.8 | 0.00 | 0.00 | 0.00 | 72 | 1006.0 |
| 20260509145021 | 57 | 223 | 4.3 | 7.8 | 0.00 | 0.00 | 0.00 | 72 | 1006.1 |
| 20260509144537 | 57 | 208 | 4.3 | 7.8 | 0.00 | 0.00 | 0.00 | 74 | 1006.1 |
| 20260509144020 | 57 | 232 | 1.7 | 7.0 | 0.00 | 0.00 | 0.00 | 76 | 1006.1 |
| 20260509143521 | 57 | 157 | 2.6 | 7.0 | 0.00 | 0.00 | 0.00 | 75 | 1006.1 |
| 20260509143037 | 57 | 195 | 1.7 | 7.0 | 0.00 | 0.00 | 0.00 | 76 | 1006.2 |
| 20260509142523 | 56 | 188 | 3.5 | 7.0 | 0.00 | 0.00 | 0.00 | 77 | 1006.2 |
| 20260509142020 | 56 | 254 | 2.6 | 7.0 | 0.00 | 0.00 | 0.00 | 77 | 1006.3 |
| 20260509141542 | 56 | 179 | 1.7 | 6.1 | 0.00 | 0.00 | 0.00 | 78 | 1006.3 |
| 20260509141021 | 56 | 221 | 2.6 | 7.8 | 0.00 | 0.00 | 0.00 | 78 | 1006.4 |
| 20260509140521 | 56 | 194 | 3.5 | 8.7 | 0.00 | 0.00 | 0.00 | 78 | 1006.4 |
| 20260509140036 | 56 | 209 | 3.5 | 8.7 | 0.00 | 0.00 | 0.00 | 78 | 1006.4 |
| 20260509135521 | 56 | 0 | 1.7 | 6.1 | 0.00 | 0.00 | 0.00 | 78 | 1006.3 |
| 20260509135026 | 56 | 213 | 2.6 | 7.8 | 0.00 | 0.00 | 0.00 | 79 | 1006.3 |
| 20260509134539 | 55 | 220 | 3.5 | 7.8 | 0.00 | 0.00 | 0.00 | 78 | 1006.2 |
| 20260509134020 | 55 | 229 | 4.3 | 7.8 | 0.00 | 0.00 | 0.00 | 78 | 1006.3 |
| 20260509133523 | 55 | 215 | 3.5 | 7.8 | 0.00 | 0.00 | 0.00 | 79 | 1006.3 |
| 20260509133038 | 55 | 223 | 3.5 | 7.8 | 0.00 | 0.00 | 0.00 | 79 | 1006.3 |
| 20260509132523 | 55 | 188 | 3.5 | 7.0 | 0.00 | 0.00 | 0.00 | 80 | 1006.2 |
| 20260509132020 | 55 | 201 | 1.7 | 7.8 | 0.00 | 0.00 | 0.00 | 81 | 1006.2 |
| 20260509131538 | 54 | 186 | 2.6 | 7.8 | 0.00 | 0.00 | 0.00 | 82 | 1006.3 |
| 20260509131022 | 54 | 174 | 4.3 | 7.8 | 0.00 | 0.00 | 0.00 | 81 | 1006.5 |
| 20260509130523 | 54 | 146 | 3.5 | 8.7 | 0.00 | 0.00 | 0.00 | 81 | 1006.6 |
| 20260509130040 | 53 | 167 | 2.6 | 8.7 | 0.00 | 0.00 | 0.00 | 82 | 1006.7 |
| 20260509125520 | 53 | 135 | 2.6 | 7.8 | 0.00 | 0.02 | 0.00 | 83 | 1006.7 |
| 20260509125020 | 53 | 188 | 3.5 | 7.8 | 0.00 | 0.02 | 0.00 | 83 | 1006.7 |
| 20260509124545 | 52 | 161 | 4.3 | 7.0 | 0.00 | 0.02 | 0.00 | 83 | 1006.7 |
| 20260509124020 | 52 | 184 | 1.7 | 7.0 | 0.00 | 0.02 | 0.00 | 84 | 1006.8 |
| 20260509123520 | 52 | 186 | 2.6 | 6.1 | 0.00 | 0.02 | 0.00 | 84 | 1006.8 |
| 20260509123042 | 52 | 203 | 1.7 | 6.1 | 0.00 | 0.02 | 0.00 | 85 | 1006.9 |
| 20260509122523 | 51 | 203 | 0.9 | 6.1 | 0.00 | 0.02 | 0.00 | 85 | 1006.9 |
| 20260509122020 | 51 | 203 | 2.6 | 5.2 | 0.00 | 0.02 | 0.00 | 85 | 1006.9 |
| 20260509121538 | 51 | 186 | 1.7 | 4.3 | 0.00 | 0.02 | 0.00 | 85 | 1007.0 |
| 20260509121023 | 50 | 169 | 0.9 | 5.2 | 0.00 | 0.02 | 0.00 | 85 | 1007.0 |
| 20260509120521 | 50 | 159 | 1.7 | 5.2 | 0.00 | 0.02 | 0.00 | 86 | 1007.1 |
| 20260509120035 | 50 | 189 | 1.7 | 5.2 | 0.00 | 0.02 | 0.00 | 86 | 1007.0 |
| 20260509115519 | 49 | 185 | 1.7 | 5.2 | 0.00 | 0.14 | 0.00 | 87 | 1006.9 |
| 20260509115022 | 49 | 158 | 1.7 | 4.3 | 0.00 | 0.14 | 0.00 | 87 | 1006.9 |
| 20260509114537 | 48 | 155 | 0.9 | 5.2 | 0.00 | 0.14 | 0.00 | 87 | 1006.9 |
| 20260509114020 | 48 | 155 | 2.6 | 5.2 | 0.00 | 0.14 | 0.00 | 88 | 1006.8 |
| 20260509113523 | 47 | 153 | 0.9 | 3.5 | 0.00 | 0.14 | 0.00 | 88 | 1007.0 |
| 20260509113040 | 47 | 148 | 0.9 | 3.5 | 0.00 | 0.14 | 0.00 | 88 | 1007.1 |
| 20260509112520 | 46 | 148 | 0.9 | 1.7 | 0.00 | 0.14 | 0.00 | 88 | 1007.0 |
| 20260509112020 | 46 | 0 | 0.0 | 1.7 | 0.00 | 0.14 | 0.00 | 88 | 1007.1 |
| 20260509111541 | 46 | 148 | 0.0 | 0.0 | 0.00 | 0.14 | 0.00 | 88 | 1007.2 |
| 20260509111023 | 46 | 0 | 0.0 | 1.7 | 0.00 | 0.14 | 0.00 | 88 | 1007.2 |
| 20260509110523 | 45 | 0 | 0.0 | 1.7 | 0.00 | 0.14 | 0.00 | 88 | 1007.3 |
| 20260509110041 | 45 | 0 | 0.0 | 1.7 | 0.00 | 0.14 | 0.00 | 89 | 1007.2 |
| 20260509105523 | 45 | 0 | 0.0 | 1.7 | 0.00 | 0.17 | 0.00 | 89 | 1007.2 |
| 20260509105023 | 45 | 0 | 0.9 | 2.6 | 0.00 | 0.17 | 0.00 | 89 | 1007.1 |
| 20260509104538 | 44 | 0 | 0.0 | 2.6 | 0.00 | 0.17 | 0.00 | 89 | 1007.2 |
| 20260509104020 | 44 | 148 | 0.0 | 2.6 | 0.00 | 0.17 | 0.00 | 89 | 1007.2 |
| 20260509103524 | 44 | 148 | 0.0 | 1.7 | 0.00 | 0.17 | 0.00 | 89 | 1007.0 |
| 20260509103044 | 43 | 0 | 0.0 | 1.7 | 0.00 | 0.17 | 0.00 | 89 | 1007.0 |
| 20260509102521 | 43 | 0 | 0.0 | 1.7 | 0.00 | 0.17 | 0.00 | 89 | 1006.9 |
| 20260509102021 | 43 | 0 | 0.0 | 1.7 | 0.00 | 0.17 | 0.00 | 89 | 1006.9 |
| 20260509101550 | 43 | 0 | 0.0 | 1.7 | 0.00 | 0.17 | 0.00 | 88 | 1006.9 |
| 20260509101020 | 42 | 0 | 0.0 | 1.7 | 0.00 | 0.17 | 0.00 | 88 | 1007.0 |
| 20260509100522 | 42 | 0 | 0.0 | 1.7 | 0.00 | 0.17 | 0.00 | 88 | 1006.9 |
| 20260509100037 | 42 | 148 | 0.0 | 1.7 | 0.00 | 0.17 | 0.00 | 87 | 1007.0 |
| 20260509095521 | 42 | 0 | 0.0 | 0.0 | 0.00 | 0.17 | 0.00 | 86 | 1007.0 |
| 20260509095020 | 42 | 0 | 0.0 | 0.0 | 0.00 | 0.17 | 0.00 | 86 | 1007.1 |
| 20260509094540 | 42 | 0 | 0.0 | 0.0 | 0.00 | 0.17 | 0.00 | 86 | 1007.1 |
| 20260509094022 | 42 | 0 | 0.0 | 0.0 | 0.00 | 0.17 | 0.00 | 85 | 1007.1 |
| 20260509093522 | 42 | 0 | 0.0 | 0.0 | 0.00 | 0.17 | 0.00 | 85 | 1007.0 |
| 20260509093038 | 43 | 0 | 0.0 | 0.0 | 0.00 | 0.17 | 0.00 | 84 | 1007.0 |
| 20260509092519 | 43 | 0 | 0.0 | 0.0 | 0.00 | 0.17 | 0.00 | 83 | 1007.0 |
| 20260509092020 | 43 | 0 | 0.0 | 0.0 | 0.00 | 0.17 | 0.00 | 82 | 1007.0 |
| 20260509091537 | 43 | 0 | 0.0 | 0.9 | 0.00 | 0.17 | 0.00 | 82 | 1007.1 |
| 20260509091024 | 44 | 0 | 0.0 | 1.7 | 0.00 | 0.17 | 0.00 | 82 | 1007.1 |
| 20260509090522 | 44 | 0 | 0.0 | 1.7 | 0.00 | 0.17 | 0.00 | 82 | 1007.1 |
| 20260509090045 | 44 | 0 | 0.0 | 1.7 | 0.00 | 0.17 | 0.00 | 82 | 1007.1 |
| 20260509085519 | 44 | 0 | 0.0 | 1.7 | 0.00 | 0.17 | 0.00 | 82 | 1007.1 |
| 20260509085019 | 44 | 0 | 0.0 | 1.7 | 0.00 | 0.17 | 0.00 | 82 | 1007.2 |
| 20260509084535 | 44 | 0 | 0.9 | 1.7 | 0.00 | 0.17 | 0.00 | 81 | 1007.2 |
| 20260509084020 | 44 | 0 | 0.0 | 2.6 | 0.00 | 0.17 | 0.00 | 80 | 1007.2 |
| 20260509083519 | 44 | 148 | 0.0 | 2.6 | 0.00 | 0.17 | 0.00 | 80 | 1007.2 |
| 20260509083053 | 44 | 148 | 0.9 | 2.6 | 0.00 | 0.17 | 0.00 | 80 | 1007.3 |
| 20260509082524 | 44 | 0 | 0.0 | 2.6 | 0.00 | 0.17 | 0.00 | 79 | 1007.3 |
| 20260509082022 | 43 | 148 | 0.9 | 2.6 | 0.00 | 0.17 | 0.00 | 79 | 1007.3 |
| 20260509081542 | 43 | 148 | 0.9 | 2.6 | 0.00 | 0.17 | 0.00 | 79 | 1007.3 |
| 20260509081023 | 43 | 148 | 0.0 | 3.5 | 0.00 | 0.17 | 0.00 | 78 | 1007.4 |
| 20260509080523 | 42 | 148 | 0.9 | 3.5 | 0.00 | 0.17 | 0.00 | 79 | 1007.4 |
| 20260509080040 | 42 | 148 | 0.0 | 1.7 | 0.00 | 0.17 | 0.00 | 78 | 1007.5 |
| 20260509075524 | 41 | 0 | 0.0 | 1.7 | 0.00 | 0.17 | 0.00 | 78 | 1007.5 |
| 20260509075022 | 41 | 0 | 0.0 | 1.7 | 0.00 | 0.17 | 0.00 | 77 | 1007.5 |
| 20260509074543 | 41 | 0 | 0.0 | 0.0 | 0.00 | 0.17 | 0.00 | 77 | 1007.6 |
| 20260509074022 | 40 | 0 | 0.0 | 0.0 | 0.00 | 0.17 | 0.00 | 76 | 1007.6 |
| 20260509073523 | 41 | 0 | 0.0 | 0.0 | 0.00 | 0.17 | 0.00 | 76 | 1007.6 |
| 20260509073043 | 41 | 0 | 0.0 | 0.0 | 0.00 | 0.17 | 0.00 | 75 | 1007.7 |
| 20260509072523 | 41 | 0 | 0.0 | 1.7 | 0.00 | 0.17 | 0.00 | 75 | 1007.7 |
| 20260509072023 | 41 | 0 | 0.0 | 1.7 | 0.00 | 0.17 | 0.00 | 75 | 1007.7 |
| 20260509071543 | 41 | 148 | 0.0 | 1.7 | 0.00 | 0.17 | 0.00 | 74 | 1007.7 |
| 20260509071020 | 41 | 148 | 0.0 | 1.7 | 0.00 | 0.17 | 0.00 | 74 | 1007.6 |
| 20260509070524 | 41 | 0 | 0.0 | 1.7 | 0.00 | 0.17 | 0.00 | 74 | 1007.7 |
| 20260509070040 | 41 | 148 | 0.0 | 1.7 | 0.00 | 0.17 | 0.00 | 74 | 1007.8 |
| 20260509065525 | 41 | 148 | 0.9 | 1.7 | 0.00 | 0.17 | 0.00 | 74 | 1007.8 |
| 20260509065025 | 41 | 148 | 0.0 | 1.7 | 0.00 | 0.17 | 0.00 | 74 | 1007.9 |
| 20260509064538 | 41 | 0 | 0.0 | 1.7 | 0.00 | 0.17 | 0.00 | 73 | 1007.8 |
| 20260509064021 | 41 | 148 | 0.0 | 1.7 | 0.00 | 0.17 | 0.00 | 73 | 1007.9 |
| 20260509063520 | 41 | 148 | 0.9 | 1.7 | 0.00 | 0.17 | 0.00 | 73 | 1008.1 |
| 20260509063038 | 41 | 148 | 0.9 | 2.6 | 0.00 | 0.17 | 0.00 | 73 | 1008.1 |
| 20260509062521 | 41 | 148 | 0.9 | 2.6 | 0.00 | 0.17 | 0.00 | 73 | 1008.2 |
| 20260509062020 | 40 | 148 | 0.9 | 2.6 | 0.00 | 0.17 | 0.00 | 75 | 1008.3 |
| 20260509061540 | 40 | 148 | 0.0 | 0.9 | 0.00 | 0.17 | 0.00 | 74 | 1008.4 |
| 20260509061024 | 40 | 0 | 0.0 | 0.0 | 0.00 | 0.17 | 0.00 | 74 | 1008.4 |
| 20260509060520 | 40 | 0 | 0.0 | 0.0 | 0.00 | 0.17 | 0.00 | 74 | 1008.5 |
| 20260509060047 | 40 | 0 | 0.0 | 0.0 | 0.00 | 0.17 | 0.00 | 73 | 1008.6 |
| 20260509055523 | 40 | 0 | 0.0 | 0.0 | 0.00 | 0.17 | 0.00 | 72 | 1008.7 |
| 20260509055021 | 41 | 0 | 0.0 | 0.0 | 0.00 | 0.17 | 0.00 | 71 | 1008.7 |
| 20260509054536 | 41 | 0 | 0.0 | 1.7 | 0.00 | 0.17 | 0.00 | 71 | 1008.8 |
| 20260509054020 | 41 | 0 | 0.0 | 1.7 | 0.00 | 0.17 | 0.00 | 70 | 1008.8 |
| 20260509053521 | 41 | 0 | 0.0 | 1.7 | 0.00 | 0.17 | 0.00 | 70 | 1008.8 |
| 20260509053102 | 41 | 148 | 0.0 | 2.6 | 0.00 | 0.17 | 0.00 | 69 | 1008.9 |
| 20260509052522 | 41 | 0 | 0.0 | 2.6 | 0.00 | 0.17 | 0.00 | 69 | 1008.9 |
| 20260509052020 | 41 | 148 | 0.0 | 3.5 | 0.00 | 0.17 | 0.00 | 69 | 1008.9 |
| 20260509051543 | 41 | 148 | 0.9 | 3.5 | 0.00 | 0.17 | 0.00 | 69 | 1009.0 |
| 20260509051021 | 41 | 136 | 0.9 | 2.6 | 0.00 | 0.17 | 0.00 | 70 | 1009.1 |
| 20260509050521 | 41 | 0 | 0.0 | 1.7 | 0.00 | 0.17 | 0.00 | 71 | 1009.2 |
| 20260509050039 | 41 | 0 | 0.0 | 1.7 | 0.00 | 0.17 | 0.00 | 71 | 1009.2 |
| 20260509045528 | 41 | 136 | 0.0 | 1.7 | 0.00 | 0.17 | 0.00 | 71 | 1009.2 |
| 20260509045021 | 41 | 0 | 0.0 | 1.7 | 0.00 | 0.17 | 0.00 | 71 | 1009.2 |
| 20260509044546 | 41 | 0 | 0.0 | 2.6 | 0.00 | 0.17 | 0.00 | 70 | 1009.2 |
| 20260509044020 | 41 | 0 | 0.0 | 5.2 | 0.00 | 0.17 | 0.00 | 70 | 1009.2 |
| 20260509043520 | 41 | 0 | 0.9 | 4.3 | 0.00 | 0.17 | 0.00 | 70 | 1009.5 |
| 20260509043046 | 41 | 0 | 0.0 | 1.7 | 0.00 | 0.17 | 0.00 | 72 | 1009.5 |
| 20260509042521 | 41 | 271 | 0.0 | 1.7 | 0.00 | 0.17 | 0.00 | 72 | 1009.5 |
| 20260509042021 | 41 | 271 | 0.0 | 1.7 | 0.00 | 0.17 | 0.00 | 72 | 1009.6 |
| 20260509041539 | 40 | 0 | 0.0 | 1.7 | 0.00 | 0.17 | 0.00 | 73 | 1009.6 |
| 20260509041021 | 40 | 0 | 0.0 | 1.7 | 0.00 | 0.17 | 0.00 | 73 | 1009.6 |
| 20260509040523 | 40 | 271 | 0.0 | 1.7 | 0.00 | 0.17 | 0.00 | 74 | 1009.6 |
| 20260509040046 | 40 | 271 | 0.0 | 0.9 | 0.00 | 0.17 | 0.00 | 76 | 1009.7 |
| 20260509035521 | 40 | 0 | 0.0 | 0.9 | 0.00 | 0.17 | 0.17 | 76 | 1009.8 |
| 20260509035021 | 40 | 0 | 0.0 | 0.9 | 0.00 | 0.17 | 0.17 | 76 | 1009.9 |
| 20260509034540 | 40 | 0 | 0.0 | 1.7 | 0.00 | 0.17 | 0.17 | 76 | 1009.9 |
| 20260509034020 | 40 | 0 | 0.0 | 1.7 | 0.00 | 0.17 | 0.17 | 76 | 1010.0 |
| 20260509033519 | 40 | 0 | 0.0 | 1.7 | 0.00 | 0.17 | 0.17 | 76 | 1010.0 |
| 20260509033043 | 40 | 0 | 0.0 | 1.7 | 0.00 | 0.17 | 0.17 | 78 | 1010.0 |
| 20260509032521 | 39 | 0 | 0.0 | 0.9 | 0.00 | 0.17 | 0.17 | 78 | 1010.0 |
| 20260509032022 | 39 | 0 | 0.0 | 0.9 | 0.00 | 0.17 | 0.17 | 80 | 1010.0 |
| 20260509031554 | 39 | 0 | 0.0 | 0.9 | 0.00 | 0.17 | 0.17 | 80 | 1010.1 |
| 20260509031023 | 39 | 0 | 0.0 | 0.0 | 0.00 | 0.17 | 0.17 | 80 | 1010.0 |
| 20260509030521 | 39 | 0 | 0.0 | 0.0 | 0.00 | 0.17 | 0.17 | 80 | 1009.9 |
| 20260509030057 | 40 | 0 | 0.0 | 0.0 | 0.00 | 0.17 | 0.17 | 79 | 1009.9 |
| 20260509025523 | 40 | 0 | 0.0 | 0.0 | 0.00 | 0.19 | 0.17 | 77 | 1010.0 |
| 20260509025020 | 40 | 0 | 0.0 | 0.0 | 0.00 | 0.19 | 0.17 | 77 | 1010.0 |
| 20260509024540 | 40 | 0 | 0.0 | 0.0 | 0.00 | 0.19 | 0.17 | 76 | 1010.1 |
| 20260509024020 | 40 | 0 | 0.0 | 0.0 | 0.00 | 0.19 | 0.17 | 76 | 1010.1 |
| 20260509023523 | 40 | 0 | 0.0 | 0.0 | 0.00 | 0.19 | 0.17 | 76 | 1010.1 |
| 20260509023041 | 40 | 0 | 0.0 | 0.0 | 0.00 | 0.19 | 0.17 | 75 | 1010.1 |
| 20260509022520 | 41 | 0 | 0.0 | 0.0 | 0.00 | 0.19 | 0.17 | 74 | 1010.1 |
| 20260509022021 | 41 | 0 | 0.0 | 0.0 | 0.00 | 0.19 | 0.17 | 74 | 1010.0 |
| 20260509021540 | 41 | 0 | 0.0 | 0.0 | 0.00 | 0.19 | 0.17 | 72 | 1010.1 |
| 20260509021019 | 42 | 0 | 0.0 | 0.0 | 0.00 | 0.19 | 0.17 | 71 | 1010.0 |
| 20260509020522 | 42 | 0 | 0.0 | 0.0 | 0.00 | 0.19 | 0.17 | 70 | 1010.0 |
| 20260509020041 | 42 | 0 | 0.0 | 0.0 | 0.00 | 0.19 | 0.17 | 70 | 1010.0 |
| 20260509015523 | 42 | 0 | 0.0 | 0.0 | 0.00 | 0.19 | 0.17 | 69 | 1010.0 |
| 20260509015024 | 42 | 0 | 0.0 | 0.0 | 0.00 | 0.19 | 0.17 | 68 | 1009.8 |
| 20260509014537 | 43 | 0 | 0.0 | 0.0 | 0.00 | 0.19 | 0.17 | 68 | 1009.8 |
| 20260509014022 | 43 | 0 | 0.0 | 0.0 | 0.00 | 0.19 | 0.17 | 67 | 1009.7 |
| 20260509013523 | 43 | 0 | 0.0 | 0.0 | 0.00 | 0.19 | 0.17 | 65 | 1009.7 |
| 20260509013040 | 44 | 0 | 0.0 | 0.0 | 0.00 | 0.19 | 0.17 | 61 | 1009.7 |
| 20260509012521 | 44 | 0 | 0.0 | 0.0 | 0.00 | 0.19 | 0.17 | 60 | 1009.7 |
| 20260509012024 | 44 | 0 | 0.0 | 0.0 | 0.00 | 0.19 | 0.17 | 56 | 1009.6 |
| 20260509011539 | 45 | 0 | 0.0 | 0.0 | 0.00 | 0.19 | 0.17 | 55 | 1009.5 |
| 20260509011022 | 45 | 0 | 0.0 | 0.0 | 0.00 | 0.19 | 0.17 | 60 | 1009.5 |
| 20260509010521 | 46 | 0 | 0.0 | 0.0 | 0.00 | 0.19 | 0.17 | 60 | 1009.6 |
| 20260509010037 | 46 | 0 | 0.0 | 0.0 | 0.00 | 0.19 | 0.17 | 60 | 1009.6 |
| 20260509005520 | 47 | 0 | 0.0 | 0.0 | 0.00 | 0.19 | 0.17 | 57 | 1009.5 |
| 20260509005019 | 47 | 0 | 0.0 | 0.0 | 0.00 | 0.19 | 0.17 | 55 | 1009.6 |
| 20260509004549 | 48 | 0 | 0.0 | 0.0 | 0.00 | 0.19 | 0.17 | 51 | 1009.5 |
| 20260509004025 | 49 | 0 | 0.0 | 0.0 | 0.00 | 0.19 | 0.17 | 53 | 1009.5 |
| 20260509003523 | 49 | 0 | 0.0 | 0.0 | 0.00 | 0.19 | 0.17 | 49 | 1009.4 |
| 20260509003051 | 50 | 0 | 0.0 | 0.0 | 0.00 | 0.19 | 0.17 | 51 | 1009.4 |
| 20260509002520 | 50 | 0 | 0.0 | 0.0 | 0.00 | 0.19 | 0.17 | 49 | 1009.3 |
| 20260509002020 | 51 | 0 | 0.0 | 0.0 | 0.00 | 0.19 | 0.17 | 47 | 1009.4 |
| 20260509001541 | 51 | 0 | 0.0 | 0.9 | 0.00 | 0.19 | 0.17 | 47 | 1009.3 |
| 20260509001020 | 52 | 0 | 0.0 | 0.9 | 0.00 | 0.19 | 0.17 | 45 | 1009.2 |
| 20260509000522 | 52 | 0 | 0.0 | 1.7 | 0.00 | 0.19 | 0.17 | 44 | 1009.1 |
| 20260509000038 | 52 | 0 | 0.0 | 2.6 | 0.00 | 0.19 | 0.17 | 42 | 1009.1 |
| 20260508235522 | 53 | 271 | 0.9 | 2.6 | 0.00 | 0.19 | 0.17 | 41 | 1009.1 |
| 20260508235022 | 53 | 271 | 0.9 | 2.6 | 0.00 | 0.19 | 0.17 | 39 | 1009.1 |
| 20260508234539 | 53 | 0 | 0.0 | 2.6 | 0.00 | 0.19 | 0.17 | 39 | 1009.2 |
| 20260508234022 | 53 | 277 | 0.0 | 2.6 | 0.00 | 0.19 | 0.17 | 38 | 1009.0 |
| 20260508233524 | 54 | 277 | 0.9 | 3.5 | 0.00 | 0.19 | 0.17 | 38 | 1009.1 |
| 20260508233044 | 54 | 278 | 0.9 | 3.5 | 0.00 | 0.19 | 0.17 | 37 | 1009.1 |
| 20260508232519 | 54 | 269 | 0.9 | 5.2 | 0.00 | 0.19 | 0.17 | 37 | 1009.2 |
| 20260508232020 | 54 | 215 | 0.9 | 5.2 | 0.00 | 0.19 | 0.17 | 38 | 1009.2 |
| 20260508231542 | 54 | 230 | 1.7 | 5.2 | 0.00 | 0.19 | 0.17 | 36 | 1009.2 |
| 20260508231021 | 54 | 216 | 2.6 | 5.2 | 0.00 | 0.19 | 0.17 | 37 | 1009.1 |
| 20260508230520 | 54 | 216 | 0.9 | 3.5 | 0.00 | 0.19 | 0.17 | 38 | 1009.1 |
| 20260508230042 | 55 | 216 | 1.7 | 4.3 | 0.00 | 0.19 | 0.17 | 37 | 1009.0 |
| 20260508225520 | 55 | 0 | 0.9 | 5.2 | 0.00 | 0.19 | 0.17 | 38 | 1009.0 |
| 20260508225021 | 55 | 213 | 1.7 | 7.0 | 0.00 | 0.19 | 0.17 | 36 | 1009.1 |
| 20260508224553 | 55 | 224 | 1.7 | 6.1 | 0.00 | 0.19 | 0.17 | 38 | 1009.1 |
| 20260508224023 | 55 | 196 | 2.6 | 6.1 | 0.00 | 0.19 | 0.17 | 36 | 1009.2 |
| 20260508223520 | 55 | 207 | 0.9 | 7.0 | 0.00 | 0.19 | 0.17 | 36 | 1009.1 |
| 20260508223047 | 55 | 235 | 2.6 | 7.0 | 0.00 | 0.19 | 0.17 | 38 | 1009.2 |
| 20260508222522 | 55 | 302 | 1.7 | 6.1 | 0.00 | 0.19 | 0.17 | 37 | 1009.1 |
| 20260508222021 | 55 | 284 | 1.7 | 7.0 | 0.00 | 0.19 | 0.17 | 37 | 1009.2 |
| 20260508221535 | 55 | 220 | 2.6 | 7.0 | 0.00 | 0.19 | 0.17 | 36 | 1009.1 |
| 20260508221023 | 56 | 213 | 1.7 | 7.0 | 0.00 | 0.19 | 0.17 | 37 | 1009.2 |
| 20260508220523 | 55 | 212 | 2.6 | 8.7 | 0.00 | 0.19 | 0.17 | 36 | 1009.2 |
| 20260508220047 | 55 | 0 | 2.6 | 8.7 | 0.00 | 0.19 | 0.17 | 38 | 1009.1 |
| 20260508215519 | 55 | 294 | 2.6 | 7.0 | 0.00 | 0.19 | 0.17 | 36 | 1009.1 |
| 20260508215019 | 55 | 292 | 2.6 | 7.0 | 0.00 | 0.19 | 0.17 | 38 | 1009.1 |
| 20260508214535 | 55 | 215 | 2.6 | 8.7 | 0.00 | 0.19 | 0.17 | 36 | 1009.2 |
| 20260508214020 | 55 | 265 | 4.3 | 8.7 | 0.00 | 0.19 | 0.17 | 36 | 1009.2 |
| 20260508213519 | 56 | 211 | 1.7 | 7.0 | 0.00 | 0.19 | 0.17 | 37 | 1009.2 |
| 20260508213041 | 55 | 235 | 1.7 | 8.7 | 0.00 | 0.19 | 0.17 | 35 | 1009.1 |
| 20260508212521 | 56 | 182 | 4.3 | 8.7 | 0.00 | 0.19 | 0.17 | 35 | 1009.2 |
| 20260508212023 | 56 | 182 | 2.6 | 8.7 | 0.00 | 0.19 | 0.17 | 38 | 1009.1 |
| 20260508211535 | 56 | 279 | 2.6 | 8.7 | 0.00 | 0.19 | 0.17 | 36 | 1009.0 |
| 20260508211021 | 56 | 305 | 2.6 | 7.8 | 0.00 | 0.19 | 0.17 | 37 | 1009.1 |
| 20260508210522 | 55 | 180 | 2.6 | 7.8 | 0.00 | 0.19 | 0.17 | 40 | 1009.1 |
| 20260508210045 | 55 | 219 | 4.3 | 10.4 | 0.00 | 0.19 | 0.17 | 35 | 1009.1 |
| 20260508205520 | 56 | 309 | 3.5 | 10.4 | 0.00 | 0.19 | 0.17 | 34 | 1009.1 |
| 20260508205020 | 56 | 208 | 3.5 | 8.7 | 0.00 | 0.19 | 0.17 | 36 | 1009.1 |
| 20260508204535 | 56 | 200 | 2.6 | 9.6 | 0.00 | 0.19 | 0.17 | 37 | 1009.1 |
| 20260508204019 | 56 | 192 | 3.5 | 9.6 | 0.00 | 0.19 | 0.17 | 38 | 1009.2 |
| 20260508203520 | 55 | 216 | 3.5 | 8.7 | 0.00 | 0.19 | 0.17 | 41 | 1009.1 |
| 20260508203042 | 55 | 182 | 3.5 | 7.8 | 0.00 | 0.19 | 0.17 | 38 | 1009.3 |
| 20260508202521 | 55 | 227 | 3.5 | 8.7 | 0.00 | 0.19 | 0.17 | 37 | 1009.5 |
| 20260508202027 | 55 | 252 | 3.5 | 8.7 | 0.00 | 0.19 | 0.17 | 41 | 1009.5 |
| 20260508201542 | 55 | 273 | 1.7 | 6.1 | 0.00 | 0.19 | 0.17 | 41 | 1009.6 |
| 20260508201027 | 56 | 298 | 1.7 | 7.0 | 0.00 | 0.19 | 0.17 | 44 | 1009.7 |
| 20260508200519 | 55 | 0 | 0.9 | 8.7 | 0.00 | 0.19 | 0.17 | 48 | 1009.7 |
| 20260508200042 | 55 | 305 | 4.3 | 8.7 | 0.00 | 0.19 | 0.17 | 43 | 1009.7 |
| 20260508195525 | 55 | 319 | 1.7 | 3.5 | 0.00 | 0.19 | 0.17 | 49 | 1009.7 |
| 20260508195022 | 54 | 55 | 0.9 | 6.1 | 0.00 | 0.19 | 0.17 | 44 | 1009.8 |
| 20260508194541 | 54 | 296 | 1.7 | 8.7 | 0.00 | 0.19 | 0.17 | 44 | 1009.9 |
| 20260508194023 | 55 | 302 | 3.5 | 8.7 | 0.00 | 0.19 | 0.17 | 48 | 1010.0 |
| 20260508193520 | 55 | 210 | 2.6 | 7.0 | 0.00 | 0.19 | 0.17 | 45 | 1010.1 |
| 20260508193037 | 54 | 217 | 3.5 | 7.0 | 0.00 | 0.19 | 0.17 | 45 | 1010.1 |
| 20260508192523 | 54 | 202 | 1.7 | 7.8 | 0.00 | 0.19 | 0.17 | 49 | 1010.2 |
| 20260508192020 | 55 | 244 | 3.5 | 7.8 | 0.00 | 0.19 | 0.17 | 50 | 1010.3 |
| 20260508191544 | 54 | 266 | 0.9 | 4.3 | 0.00 | 0.19 | 0.17 | 53 | 1010.3 |
| 20260508191020 | 54 | 47 | 0.0 | 6.1 | 0.00 | 0.19 | 0.17 | 49 | 1010.3 |
| 20260508190520 | 54 | 276 | 2.6 | 7.0 | 0.00 | 0.19 | 0.17 | 49 | 1010.4 |
| 20260508190037 | 53 | 300 | 1.7 | 8.7 | 0.00 | 0.19 | 0.17 | 52 | 1010.6 |
| 20260508185521 | 53 | 282 | 3.5 | 8.7 | 0.00 | 0.19 | 0.17 | 52 | 1010.6 |
| 20260508185019 | 53 | 190 | 1.7 | 3.5 | 0.00 | 0.19 | 0.17 | 53 | 1010.6 |
| 20260508184538 | 52 | 105 | 0.9 | 2.6 | 0.00 | 0.19 | 0.17 | 55 | 1010.6 |
| 20260508184019 | 51 | 63 | 0.9 | 2.6 | 0.00 | 0.19 | 0.17 | 52 | 1010.6 |
| 20260508183522 | 51 | 30 | 1.7 | 2.6 | 0.00 | 0.19 | 0.17 | 53 | 1010.6 |
| 20260508183045 | 51 | 189 | 0.0 | 4.3 | 0.00 | 0.19 | 0.17 | 55 | 1010.6 |
| 20260508182523 | 51 | 189 | 1.7 | 4.3 | 0.00 | 0.19 | 0.17 | 53 | 1010.6 |
| 20260508182023 | 51 | 189 | 1.7 | 5.2 | 0.00 | 0.19 | 0.17 | 52 | 1010.6 |
| 20260508181542 | 52 | 256 | 1.7 | 5.2 | 0.00 | 0.19 | 0.17 | 52 | 1010.6 |
| 20260508181021 | 52 | 234 | 0.9 | 6.1 | 0.00 | 0.19 | 0.17 | 51 | 1010.6 |
| 20260508180522 | 52 | 234 | 1.7 | 8.7 | 0.00 | 0.19 | 0.17 | 54 | 1010.7 |
| 20260508180039 | 52 | 242 | 3.5 | 9.6 | 0.00 | 0.19 | 0.17 | 52 | 1010.6 |
| 20260508175523 | 53 | 269 | 2.6 | 10.4 | 0.00 | 0.19 | 0.17 | 51 | 1010.7 |
| 20260508175022 | 52 | 241 | 4.3 | 10.4 | 0.00 | 0.19 | 0.17 | 49 | 1010.7 |
| 20260508174537 | 52 | 229 | 2.6 | 7.0 | 0.00 | 0.19 | 0.17 | 47 | 1010.9 |
| 20260508174023 | 52 | 186 | 3.5 | 8.7 | 0.00 | 0.19 | 0.17 | 47 | 1010.9 |
| 20260508173523 | 52 | 193 | 4.3 | 8.7 | 0.00 | 0.19 | 0.17 | 45 | 1010.9 |
| 20260508173036 | 52 | 165 | 1.7 | 7.8 | 0.00 | 0.19 | 0.17 | 51 | 1010.9 |
| 20260508172521 | 51 | 240 | 1.7 | 4.3 | 0.00 | 0.19 | 0.17 | 56 | 1011.0 |
| 20260508172022 | 51 | 187 | 1.7 | 3.5 | 0.00 | 0.19 | 0.17 | 55 | 1010.9 |
| 20260508171541 | 51 | 192 | 1.7 | 5.2 | 0.00 | 0.19 | 0.17 | 54 | 1011.0 |
| 20260508171021 | 51 | 188 | 0.9 | 10.4 | 0.00 | 0.19 | 0.17 | 52 | 1011.0 |
| 20260508170522 | 51 | 191 | 4.3 | 10.4 | 0.00 | 0.19 | 0.17 | 53 | 1011.1 |
| 20260508170039 | 51 | 209 | 3.5 | 7.8 | 0.00 | 0.19 | 0.17 | 56 | 1011.0 |
| 20260508165521 | 50 | 252 | 2.6 | 13.9 | 0.00 | 0.19 | 0.17 | 56 | 1011.1 |
| 20260508165025 | 50 | 236 | 4.3 | 13.9 | 0.00 | 0.19 | 0.17 | 58 | 1011.2 |
| 20260508164537 | 50 | 206 | 1.7 | 10.4 | 0.00 | 0.19 | 0.17 | 57 | 1011.2 |
| 20260508164022 | 50 | 206 | 4.3 | 10.4 | 0.00 | 0.19 | 0.17 | 57 | 1011.2 |
| 20260508163521 | 49 | 290 | 3.5 | 9.6 | 0.00 | 0.19 | 0.17 | 61 | 1011.4 |
| 20260508163038 | 50 | 319 | 1.7 | 7.8 | 0.00 | 0.19 | 0.17 | 62 | 1011.3 |
| 20260508162522 | 49 | 0 | 1.7 | 13.9 | 0.00 | 0.19 | 0.17 | 65 | 1011.4 |